Location: Bakhuizen
(52.8696°N, 5.4575°E)
Time: 07:07:57
(UTC+00:00)

Cosmos 1271 Rocket - Pass Details

Date: 11 May 2021
Orbit: 497 x 545 km, 81.2° (Epoch: 20 June)

Event Time Altitude Azimuth Distance (km) Brightness Sun altitude
Exits shadow 20:18:41 10° 135° (SE) 1,851 4.8 -7.4°
Reaches altitude 10° 20:18:49 10° 134° (SE) 1,815 4.8 -7.4°
Maximum altitude 20:21:41 19° 88° (E) 1,332 4.4 -7.7°
Drops below altitude 10° 20:24:34 10° 42° (NE) 1,828 5.5 -8.0°
Sets 20:27:12 0° 25° (NNE) 2,725 6.7 -8.3°
